TimeEST,TemperatureF,Dew PointF,Humidity,Sea Level PressureIn,VisibilityMPH,Wind Direction,Wind SpeedMPH,Gust SpeedMPH,PrecipitationIn,Events,Conditions,WindDirDegrees,DateUTC
12:15 AM,43.3,33.4,68,29.75,10.0,NNW,9.2,-,N/A,,Overcast,330,2013-03-01 05:15:00
12:35 AM,43.2,33.4,69,29.75,10.0,NW,12.7,-,N/A,,Overcast,310,2013-03-01 05:35:00
12:55 AM,43.0,33.4,69,29.76,10.0,NW,9.2,-,N/A,,Overcast,310,2013-03-01 05:55:00
1:15 AM,42.8,33.8,70,29.77,10.0,WNW,10.4,-,N/A,,Overcast,300,2013-03-01 06:15:00
1:35 AM,42.4,33.8,71,29.77,10.0,WNW,6.9,-,N/A,,Overcast,290,2013-03-01 06:35:00
1:55 AM,42.6,33.6,70,29.77,10.0,WNW,8.1,-,N/A,,Overcast,300,2013-03-01 06:55:00
2:15 AM,42.4,33.3,70,29.77,10.0,WNW,10.4,-,N/A,,Overcast,300,2013-03-01 07:15:00
2:35 AM,42.4,33.1,69,29.76,10.0,NW,5.8,-,N/A,,Overcast,310,2013-03-01 07:35:00
3:15 AM,42.1,32.9,70,29.76,10.0,NW,10.4,-,N/A,,Overcast,320,2013-03-01 08:15:00
3:35 AM,41.0,32.4,71,29.76,10.0,NNW,9.2,-,N/A,,Mostly Cloudy,330,2013-03-01 08:35:00
3:55 AM,39.2,32.0,75,29.76,10.0,NNW,6.9,-,N/A,,Scattered Clouds,330,2013-03-01 08:55:00
4:15 AM,37.2,32.0,81,29.76,10.0,NW,5.8,-,N/A,,Clear,320,2013-03-01 09:15:00
4:35 AM,36.7,32.0,83,29.77,10.0,NW,5.8,-,N/A,,Clear,310,2013-03-01 09:35:00
5:15 AM,39.7,32.7,76,29.78,10.0,WNW,5.8,-,N/A,,Overcast,300,2013-03-01 10:15:00
5:35 AM,40.1,32.7,75,29.78,10.0,NW,5.8,-,N/A,,Overcast,310,2013-03-01 10:35:00
5:55 AM,40.1,32.5,74,29.78,10.0,NW,5.8,-,N/A,,Overcast,310,2013-03-01 10:55:00
6:15 AM,39.7,32.9,77,29.79,10.0,WNW,5.8,-,N/A,,Overcast,300,2013-03-01 11:15:00
6:35 AM,40.5,32.9,74,29.78,10.0,NW,8.1,-,N/A,,Overcast,310,2013-03-01 11:35:00
7:15 AM,41.2,32.7,72,29.80,10.0,NW,9.2,-,N/A,,Overcast,310,2013-03-01 12:15:00
7:35 AM,41.4,32.7,71,29.81,10.0,NW,10.4,-,N/A,,Overcast,310,2013-03-01 12:35:00
8:15 AM,41.9,33.1,71,29.83,10.0,WNW,8.1,-,N/A,,Overcast,300,2013-03-01 13:15:00
8:35 AM,42.3,32.9,69,29.84,10.0,NW,9.2,-,N/A,,Overcast,310,2013-03-01 13:35:00
8:55 AM,42.4,32.4,68,29.83,10.0,NW,15.0,-,N/A,,Overcast,320,2013-03-01 13:55:00
9:15 AM,43.0,32.5,67,29.83,10.0,NW,11.5,-,N/A,,Overcast,320,2013-03-01 14:15:00
9:35 AM,43.0,32.0,65,29.83,10.0,NW,11.5,-,N/A,,Overcast,310,2013-03-01 14:35:00
10:15 AM,43.2,32.0,65,29.84,10.0,WNW,15.0,-,N/A,,Overcast,300,2013-03-01 15:15:00
10:35 AM,43.9,32.2,63,29.84,10.0,WNW,13.8,-,N/A,,Overcast,300,2013-03-01 15:35:00
10:55 AM,44.6,32.4,62,29.83,10.0,NW,11.5,-,N/A,,Overcast,310,2013-03-01 15:55:00
11:15 AM,45.1,32.7,62,29.84,10.0,WNW,10.4,16.1,N/A,,Overcast,300,2013-03-01 16:15:00
11:35 AM,45.7,32.4,60,29.84,10.0,WNW,13.8,-,N/A,,Overcast,290,2013-03-01 16:35:00
11:55 AM,45.5,31.5,58,29.84,10.0,WNW,11.5,-,N/A,,Overcast,290,2013-03-01 16:55:00
12:15 PM,45.5,30.9,57,29.84,10.0,WNW,13.8,19.6,N/A,,Overcast,300,2013-03-01 17:15:00
12:35 PM,46.4,32.0,57,29.83,10.0,West,8.1,17.3,N/A,,Overcast,280,2013-03-01 17:35:00
12:55 PM,46.9,31.3,55,29.83,10.0,WNW,15.0,21.9,N/A,,Overcast,300,2013-03-01 17:55:00
1:15 PM,46.6,31.8,56,29.82,10.0,WNW,12.7,18.4,N/A,,Overcast,290,2013-03-01 18:15:00
1:35 PM,45.9,32.0,58,29.82,10.0,WNW,13.8,20.7,N/A,,Overcast,300,2013-03-01 18:35:00
1:55 PM,45.1,32.4,61,29.82,10.0,WNW,15.0,23.0,N/A,,Overcast,300,2013-03-01 18:55:00
2:35 PM,43.5,32.0,64,29.82,10.0,WNW,11.5,-,N/A,,Overcast,290,2013-03-01 19:35:00
2:55 PM,44.2,32.5,63,29.82,10.0,WNW,12.7,16.1,N/A,,Overcast,300,2013-03-01 19:55:00
3:15 PM,43.9,32.7,65,29.82,10.0,NW,11.5,-,N/A,,Overcast,310,2013-03-01 20:15:00
3:35 PM,43.3,32.7,66,29.82,10.0,NW,12.7,-,N/A,,Overcast,310,2013-03-01 20:35:00
3:55 PM,43.0,32.4,66,29.82,10.0,NW,9.2,-,N/A,,Overcast,310,2013-03-01 20:55:00
4:15 PM,43.2,32.0,65,29.82,10.0,NNW,9.2,-,N/A,,Overcast,330,2013-03-01 21:15:00
4:35 PM,42.4,32.5,68,29.83,10.0,NW,10.4,17.3,N/A,,Overcast,320,2013-03-01 21:35:00
4:55 PM,42.3,31.8,67,29.84,10.0,WNW,11.5,-,N/A,,Overcast,300,2013-03-01 21:55:00
5:15 PM,41.9,31.5,66,29.84,10.0,NW,9.2,-,N/A,,Overcast,310,2013-03-01 22:15:00
5:35 PM,41.4,31.1,67,29.84,10.0,WNW,9.2,-,N/A,,Mostly Cloudy,300,2013-03-01 22:35:00
6:15 PM,40.6,31.1,69,29.85,10.0,WNW,10.4,-,N/A,,Overcast,290,2013-03-01 23:15:00
6:35 PM,40.5,31.5,70,29.85,10.0,WNW,9.2,-,N/A,,Overcast,300,2013-03-01 23:35:00
6:55 PM,40.1,31.8,72,29.85,10.0,WNW,8.1,-,N/A,,Overcast,290,2013-03-01 23:55:00
7:15 PM,40.1,32.0,73,29.86,10.0,WNW,10.4,18.4,N/A,,Overcast,300,2013-03-02 00:15:00
7:35 PM,40.1,32.0,73,29.87,10.0,NW,11.5,-,N/A,,Overcast,310,2013-03-02 00:35:00
7:55 PM,39.7,32.0,74,29.87,10.0,NW,8.1,-,N/A,,Overcast,320,2013-03-02 00:55:00
8:15 PM,39.2,32.0,75,29.88,10.0,NNW,5.8,-,N/A,,Overcast,330,2013-03-02 01:15:00
8:35 PM,38.3,32.0,78,29.89,10.0,WNW,6.9,-,N/A,,Overcast,300,2013-03-02 01:35:00
9:15 PM,39.4,31.5,73,29.89,10.0,NW,8.1,-,N/A,,Overcast,310,2013-03-02 02:15:00
9:35 PM,38.7,31.8,76,29.89,10.0,NW,6.9,-,N/A,,Overcast,320,2013-03-02 02:35:00
9:55 PM,38.3,31.6,77,29.90,10.0,WNW,8.1,-,N/A,,Overcast,300,2013-03-02 02:55:00
10:15 PM,38.8,29.8,70,29.90,10.0,NW,12.7,19.6,N/A,,Overcast,310,2013-03-02 03:15:00
10:35 PM,37.9,29.5,72,29.90,10.0,NW,9.2,18.4,N/A,,Overcast,320,2013-03-02 03:35:00
10:55 PM,37.4,29.3,73,29.90,10.0,NW,8.1,-,N/A,,Overcast,310,2013-03-02 03:55:00
11:15 PM,36.9,29.3,74,29.90,10.0,NW,6.9,-,N/A,,Overcast,310,2013-03-02 04:15:00
11:35 PM,36.9,28.9,73,29.90,10.0,NW,5.8,-,N/A,,Overcast,310,2013-03-02 04:35:00
11:55 PM,36.7,29.1,74,29.89,10.0,WNW,4.6,-,N/A,,Overcast,300,2013-03-02 04:55:00